Weather in Yurmy

Russia / Tyumen Oblast     57°23′04″N   68°05′47″E
temp.,
°C
wind,
m/s
gust,
m/s
humid.,
%
clouds,
%
prec.,
mm/h
press.,
hPa
HPBL,
m
28 february, sun
sun2823:00−26se399543 0.0 1025221
02:00−26se3894100 0.0 1023198
05:00−25ese3895100 0.0 1022228
08:00−24ese4994100 0.0 1020270
11:00−21ese479398 0.0 1019330
14:00−17e4892100 0.0 1018427
17:00−17e4893100 0.1 1016501
20:00−18e41095100 0.1 1016435
1 march, mon
mon123:00−19ene3896100 0.1 1015382
02:00−20ene3897100 0.1 1014306
05:00−22ne2798100 0.1 1015216
08:00−22ne269895 0.1 1015234
11:00−18nne249495 0.1 1015305
14:00−14nne2390100 0.1 1015411
17:00−14n1295100 0.1 101687
20:00−19nnw11100100 0.0 101620
2 march, tue
tue223:00−21wnw0110099 0.1 101720
02:00−21sw1210090 0.0 101620
05:00−23sw1210087 0.0 101620
08:00−23ssw229852 0.0 101523
11:00−16s249340 0.0 1014269
14:00−12s359091 0.0 1012511
17:00−12s379296 0.1 1011507
20:00−16s389699 0.0 1010257
3 march, wed
wed323:00−18s399583 0.0 1009233
02:00−19s399671 0.0 1007228
05:00−18sse4109586 0.0 1007271
08:00−17s41094100 0.0 1005366
11:00−14s4893100 0.3 1005476
14:00−11s4990100 0.3 1003612
17:00−9s4991100 0.4 1003684
20:00−8s41193100 0.2 1002552
4 march, thu
thu423:00−8s4109498 0.4 1001393
02:00−7s399598 0.2 1000276
05:00−6s399593 0.3 1000334
08:00−5ssw3995100 0.2 1000389
11:00−3sw379399 0.4 999476
14:00−2wsw3591100 0.3 999619
17:00−4w2590100 0.3 1000365
20:00−8w2594100 0.0 1000126